Location: El Abasto
(10.3790°N, 67.5897°W)
Time: 17:48:36
(UTC+00:00)

Helios 1B rocket - Pass Details

Date: 19 May 2024
Orbit: 533 x 545 km, 98.2° (Epoch: 12 June)

Event Time Altitude Azimuth Distance (km) Brightness Sun altitude
Rises 22:58:46 0° 176° (S) 2,707 5.6 -3.8°
Reaches altitude 10° 23:00:55 10° 181° (S) 1,814 4.8 -4.3°
Maximum altitude 23:04:45 54° 258° (WSW) 664 3.2 -5.2°
Drops below altitude 10° 23:08:35 10° 337° (NNW) 1,811 5.7 -6.0°
Sets 23:10:44 0° 341° (NNW) 2,702 6.5 -6.5°
